"read_dt","SO2 (ppb)","flags","PMT voltage (V)","lamp voltage (V)","lamp intensity (Hz)","internal temp (C)","react chamber temp (C)","sample flow (l/min)","pres (mmHg)","SO2 bkg (ppb)","SO2 coefficient"
2016-04-15 00:00:00,1855E-3,5C000400,-0724,0835,12426,024.5,045.3,0.261,762.3,01.16,0.508
2016-04-15 00:01:00,1755E-3,5C000400,-0724,0834,12214,024.5,045.3,0.262,762.3,01.16,0.508
2016-04-15 00:02:00,1853E-3,5C000400,-0724,0837,12458,024.5,045.3,0.261,762.3,01.16,0.508
2016-04-15 00:03:00,1753E-3,5C000400,-0724,0834,12243,024.5,045.4,0.262,762.3,01.16,0.508
2016-04-15 00:04:00,1894E-3,5C000400,-0724,0835,12140,024.5,045.3,0.261,762.3,01.16,0.508
2016-04-15 00:05:00,1811E-3,5C000400,-0724,0834,12202,024.5,045.3,0.262,762.3,01.16,0.508
2016-04-15 00:06:00,1873E-3,5C000400,-0724,0836,12219,024.5,045.3,0.261,762.3,01.16,0.508
2016-04-15 00:07:00,1819E-3,5C000400,-0724,0834,12406,024.5,045.3,0.262,762.3,01.16,0.508
2016-04-15 00:08:00,1886E-3,5C000400,-0724,0835,12572,024.5,045.3,0.262,762.3,01.16,0.508
2016-04-15 00:09:00,1662E-3,5C000400,-0724,0838,12423,024.5,045.3,0.261,762.3,01.16,0.508
2016-04-15 00:10:00,1779E-3,5C000400,-0724,0833,11128,024.5,045.4,0.262,762.3,01.16,0.508
2016-04-15 00:11:00,1875E-3,5C000400,-0724,0833,12249,024.5,045.3,0.262,762.3,01.16,0.508
2016-04-15 00:12:00,1797E-3,5C000400,-0724,0836,12284,024.5,045.3,0.261,762.3,01.16,0.508
2016-04-15 00:13:00,1930E-3,5C000400,-0724,0835,12000,024.5,045.3,0.261,762.3,01.16,0.508
2016-04-15 00:14:00,1820E-3,5C000400,-0724,0835,12399,024.5,045.3,0.261,762.4,01.16,0.508
2016-04-15 00:15:00,1851E-3,5C000400,-0724,0835,12349,024.5,045.4,0.261,762.4,01.16,0.508
2016-04-15 00:16:00,1791E-3,5C000400,-0724,0835,12186,024.5,045.3,0.261,762.4,01.16,0.508
2016-04-15 00:17:00,1824E-3,5C000400,-0724,0835,12310,024.5,045.3,0.261,762.4,01.16,0.508
2016-04-15 00:18:00,1843E-3,5C000400,-0724,0834,12213,024.5,045.3,0.261,762.3,01.16,0.508
2016-04-15 00:19:00,1947E-3,5C000400,-0724,0837,12410,024.5,045.3,0.262,762.4,01.16,0.508
2016-04-15 00:20:00,1853E-3,5C000400,-0724,0837,10040,024.5,045.3,0.261,762.4,01.16,0.508
2016-04-15 00:21:00,1648E-3,5C000400,-0724,0836,11330,024.5,045.3,0.261,762.4,01.16,0.508
2016-04-15 00:22:00,1764E-3,5C000400,-0724,0836,11164,024.5,045.4,0.261,762.4,01.16,0.508
2016-04-15 00:23:00,1759E-3,5C000400,-0724,0835,12194,024.6,045.3,0.261,762.4,01.16,0.508
2016-04-15 00:24:00,1755E-3,5C000400,-0724,0835,12139,024.5,045.3,0.262,762.4,01.16,0.508
2016-04-15 00:25:00,1878E-3,5C000400,-0724,0835,12341,024.5,045.3,0.261,762.4,01.16,0.508
2016-04-15 00:26:00,1991E-3,5C000400,-0724,0833,12285,024.5,045.4,0.261,762.4,01.16,0.508
2016-04-15 00:27:00,1880E-3,5C000400,-0724,0837,12273,024.5,045.3,0.261,762.4,01.16,0.508
2016-04-15 00:28:00,1822E-3,5C000400,-0724,0835,12110,024.6,045.3,0.262,762.4,01.16,0.508
2016-04-15 00:29:00,1930E-3,5C000400,-0724,0836,12364,024.6,045.3,0.261,762.4,01.16,0.508
2016-04-15 00:30:00,1768E-3,5C000400,-0724,0839,12303,024.5,045.3,0.261,762.4,01.16,0.508
2016-04-15 00:31:00,1801E-3,5C000400,-0724,0836,12302,024.6,045.3,0.261,762.4,01.16,0.508
2016-04-15 00:32:00,1931E-3,5C000400,-0724,0833,11997,024.6,045.3,0.261,762.4,01.16,0.508
2016-04-15 00:33:00,1826E-3,5C000400,-0724,0839,11162,024.6,045.3,0.261,762.4,01.16,0.508
2016-04-15 00:34:00,1669E-3,5C000400,-0724,0842,12292,024.6,045.3,0.261,762.4,01.16,0.508
2016-04-15 00:35:00,1777E-3,5C000400,-0724,0833,12271,024.6,045.3,0.261,762.4,01.16,0.508
2016-04-15 00:36:00,1760E-3,5C000400,-0724,0838,12317,024.6,045.3,0.261,762.4,01.16,0.508
2016-04-15 00:37:00,1836E-3,5C000400,-0724,0833,11180,024.6,045.3,0.261,762.4,01.16,0.508
2016-04-15 00:38:00,1673E-3,5C000400,-0724,0837,12522,024.6,045.3,0.261,762.4,01.16,0.508
2016-04-15 00:39:00,1602E-3,5C000400,-0724,0839,11294,024.6,045.3,0.261,762.4,01.16,0.508
2016-04-15 00:40:00,1718E-3,5C000400,-0724,0839,10142,024.6,045.3,0.261,762.4,01.16,0.508
2016-04-15 00:41:00,1629E-3,5C000400,-0724,0843,10376,024.6,045.3,0.261,762.4,01.16,0.508
2016-04-15 00:42:00,1708E-3,5C000400,-0724,0834,12204,024.6,045.3,0.261,762.4,01.16,0.508
2016-04-15 00:43:00,1648E-3,5C000400,-0724,0838,12272,024.6,045.3,0.261,762.4,01.16,0.508
2016-04-15 00:44:00,1698E-3,5C000400,-0724,0842,12651,024.6,045.3,0.261,762.4,01.16,0.508
2016-04-15 00:45:00,1653E-3,5C000400,-0724,0838,11447,024.6,045.3,0.261,762.4,01.16,0.508
2016-04-15 00:46:00,1674E-3,5C000400,-0724,0840,12527,024.6,045.3,0.261,762.4,01.16,0.508
2016-04-15 00:47:00,1814E-3,5C000400,-0724,0837,11239,024.6,045.3,0.261,762.4,01.16,0.508
2016-04-15 00:48:00,1645E-3,5C000400,-0724,0837,12366,024.6,045.4,0.261,762.4,01.16,0.508
2016-04-15 00:49:00,1713E-3,5C000400,-0724,0839,12578,024.6,045.4,0.261,762.4,01.16,0.508
2016-04-15 00:50:00,1788E-3,5C000400,-0724,0842,12579,024.6,045.4,0.261,762.4,01.16,0.508
2016-04-15 00:51:00,1811E-3,5C000400,-0724,0833,12231,024.6,045.3,0.261,762.4,01.16,0.508
2016-04-15 00:52:00,1724E-3,5C000400,-0724,0836,11399,024.7,045.3,0.261,762.4,01.16,0.508
2016-04-15 00:53:00,1643E-3,5C000400,-0724,0838,10912,024.6,045.4,0.261,762.4,01.16,0.508
2016-04-15 00:54:00,1876E-3,5C000400,-0724,0838,11137,024.7,045.4,0.261,762.4,01.16,0.508
2016-04-15 00:55:00,1875E-3,5C000400,-0724,0837,10115,024.7,045.4,0.261,762.4,01.16,0.508
2016-04-15 00:56:00,1690E-3,5C000400,-0724,0841,12608,024.7,045.3,0.261,762.4,01.16,0.508
2016-04-15 00:57:00,1793E-3,5C000400,-0724,0838,8879,024.7,045.3,0.261,762.4,01.16,0.508
2016-04-15 00:58:00,1723E-3,5C000400,-0724,0841,6535,024.7,045.3,0.261,762.4,01.16,0.508
2016-04-15 00:59:00,1732E-3,5C000400,-0724,0837,8824,024.7,045.3,0.261,762.4,01.16,0.508
2016-04-15 01:00:00,1646E-3,5C000400,-0724,0841,11631,024.7,045.4,0.261,762.4,01.16,0.508
2016-04-15 01:01:00,1769E-3,5C000400,-0724,0841,11523,024.7,045.3,0.261,762.4,01.16,0.508
2016-04-15 01:02:00,1710E-3,5C000410,-0724,0839,8966,024.7,045.3,0.261,762.4,01.16,0.508
2016-04-15 01:03:00,1806E-3,5C000400,-0724,0838,11161,024.7,045.3,0.261,762.4,01.16,0.508
2016-04-15 01:04:00,1753E-3,5C000400,-0724,0841,12462,024.7,045.3,0.261,762.4,01.16,0.508
2016-04-15 01:05:00,1668E-3,5C000400,-0724,0836,12554,024.7,045.3,0.261,762.4,01.16,0.508
2016-04-15 01:06:00,1598E-3,5C000400,-0724,0837,12377,024.7,045.3,0.261,762.4,01.16,0.508
2016-04-15 01:07:00,1783E-3,5C000400,-0724,0841,11244,024.7,045.3,0.261,762.3,01.16,0.508
2016-04-15 01:08:00,1701E-3,5C000400,-0724,0840,12520,024.7,045.4,0.261,762.3,01.16,0.508
2016-04-15 01:09:00,1733E-3,5C000400,-0724,0846,12888,024.8,045.3,0.261,762.3,01.16,0.508
2016-04-15 01:10:00,1582E-3,5C000400,-0724,0839,11423,024.7,045.3,0.261,762.3,01.16,0.508
2016-04-15 01:11:00,1813E-3,5C000400,-0724,0834,12499,024.8,045.3,0.261,762.4,01.16,0.508
2016-04-15 01:12:00,1724E-3,5C000400,-0724,0835,11194,024.7,045.3,0.261,762.4,01.16,0.508
2016-04-15 01:13:00,1765E-3,5C000400,-0724,0834,12141,024.7,045.3,0.260,762.4,01.16,0.508
2016-04-15 01:14:00,1807E-3,5C000400,-0724,0834,12375,024.8,045.3,0.261,762.4,01.16,0.508
2016-04-15 01:15:00,1726E-3,5C000400,-0724,0836,12583,024.8,045.3,0.261,762.4,01.16,0.508
2016-04-15 01:16:00,1681E-3,5C000400,-0724,0836,12166,024.7,045.3,0.261,762.4,01.16,0.508
2016-04-15 01:17:00,1765E-3,5C000400,-0724,0839,11281,024.8,045.3,0.261,762.4,01.16,0.508
2016-04-15 01:18:00,1699E-3,5C000400,-0724,0838,12561,024.8,045.3,0.261,762.4,01.16,0.508
2016-04-15 01:19:00,1769E-3,5C000400,-0724,0835,9842,024.8,045.4,0.261,762.4,01.16,0.508
2016-04-15 01:20:00,1781E-3,5C000400,-0724,0834,11249,024.8,045.4,0.261,762.4,01.16,0.508
2016-04-15 01:21:00,1857E-3,5C000400,-0724,0839,12522,024.8,045.3,0.261,762.4,01.16,0.508
2016-04-15 01:22:00,1781E-3,5C000400,-0724,0832,10979,024.8,045.3,0.261,762.4,01.16,0.508
2016-04-15 01:23:00,1831E-3,5C000400,-0724,0832,12188,024.8,045.3,0.261,762.4,01.16,0.508
2016-04-15 01:24:00,1988E-3,5C000400,-0724,0836,11188,024.8,045.3,0.261,762.4,01.16,0.508
2016-04-15 01:25:00,1853E-3,5C000400,-0724,0835,11231,024.8,045.3,0.261,762.4,01.16,0.508
2016-04-15 01:26:00,1812E-3,5C000400,-0724,0837,11431,024.8,045.4,0.261,762.4,01.16,0.508
2016-04-15 01:27:00,1784E-3,5C000400,-0724,0834,11280,024.9,045.4,0.261,762.4,01.16,0.508
2016-04-15 01:28:00,1754E-3,5C000400,-0724,0837,12413,024.9,045.4,0.261,762.4,01.16,0.508
2016-04-15 01:29:00,1732E-3,5C000400,-0724,0834,12363,024.8,045.3,0.261,762.4,01.16,0.508
2016-04-15 01:30:00,1726E-3,5C000400,-0724,0835,11363,024.8,045.3,0.261,762.4,01.16,0.508
2016-04-15 01:31:00,1662E-3,5C000400,-0724,0836,11126,024.8,045.4,0.261,762.4,01.16,0.508
2016-04-15 01:32:00,1718E-3,5C000400,-0724,0833,12096,024.8,045.4,0.260,762.4,01.16,0.508
2016-04-15 01:33:00,1644E-3,5C000400,-0724,0840,11513,024.9,045.3,0.261,762.4,01.16,0.508
2016-04-15 01:34:00,1686E-3,5C000400,-0724,0837,12318,024.9,045.3,0.261,762.4,01.16,0.508
2016-04-15 01:35:00,1699E-3,5C000400,-0724,0835,12258,024.9,045.3,0.261,762.4,01.16,0.508
2016-04-15 01:36:00,1788E-3,5C000400,-0724,0835,11326,024.9,045.3,0.261,762.4,01.16,0.508
2016-04-15 01:37:00,1751E-3,5C000400,-0724,0834,11105,024.9,045.4,0.260,762.4,01.16,0.508
2016-04-15 01:38:00,1848E-3,5C000400,-0724,0834,12249,024.9,045.3,0.261,762.4,01.16,0.508
2016-04-15 01:39:00,1854E-3,5C000400,-0724,0834,12455,024.9,045.3,0.261,762.4,01.16,0.508
2016-04-15 01:40:00,1736E-3,5C000400,-0724,0834,12145,024.9,045.3,0.261,762.4,01.16,0.508
2016-04-15 01:41:00,1869E-3,5C000400,-0724,0834,12326,024.9,045.3,0.261,762.4,01.16,0.508
2016-04-15 01:42:00,1855E-3,5C000400,-0724,0834,12065,024.9,045.3,0.260,762.4,01.16,0.508
2016-04-15 01:43:00,1653E-3,5C000400,-0724,0841,12307,024.9,045.3,0.261,762.4,01.16,0.508
2016-04-15 01:44:00,1812E-3,5C000400,-0724,0837,11379,025.0,045.4,0.260,762.4,01.16,0.508
2016-04-15 01:45:00,1762E-3,5C000400,-0724,0832,12518,025.0,045.4,0.261,762.4,01.16,0.508
2016-04-15 01:46:00,1841E-3,5C000400,-0724,0834,12379,025.0,045.4,0.261,762.4,01.16,0.508
2016-04-15 01:47:00,1754E-3,5C000400,-0724,0834,11404,025.0,045.3,0.260,762.4,01.16,0.508
2016-04-15 01:48:00,1671E-3,5C000400,-0724,0835,11380,025.0,045.4,0.261,762.4,01.16,0.508
2016-04-15 01:49:00,1687E-3,5C000400,-0724,0840,12549,025.0,045.3,0.260,762.4,01.16,0.508
2016-04-15 01:50:00,1739E-3,5C000400,-0724,0831,12533,025.0,045.3,0.261,762.4,01.16,0.508
2016-04-15 01:51:00,1740E-3,5C000400,-0724,0837,11089,025.0,045.4,0.260,762.4,01.16,0.508
2016-04-15 01:52:00,1831E-3,5C000400,-0724,0836,11208,025.0,045.3,0.261,762.4,01.16,0.508
2016-04-15 01:53:00,1695E-3,5C000400,-0724,0838,12527,025.0,045.3,0.260,762.4,01.16,0.508
2016-04-15 01:54:00,1912E-3,5C000400,-0724,0833,12603,025.0,045.4,0.261,762.4,01.16,0.508
2016-04-15 01:55:00,1722E-3,5C000400,-0724,0839,12661,025.0,045.4,0.260,762.4,01.16,0.508
2016-04-15 01:56:00,1778E-3,5C000400,-0724,0837,12491,025.0,045.4,0.260,762.4,01.16,0.508
2016-04-15 01:57:00,1686E-3,5C000400,-0724,0835,12396,025.0,045.4,0.261,762.4,01.16,0.508
2016-04-15 01:58:00,1730E-3,5C000400,-0724,0834,11205,025.0,045.3,0.260,762.4,01.16,0.508
2016-04-15 01:59:00,1879E-3,5C000400,-0724,0836,11343,025.0,045.4,0.260,762.4,01.16,0.508
2016-04-15 02:00:00,1890E-3,5C000400,-0724,0838,12216,025.0,045.4,0.260,762.4,01.16,0.508
2016-04-15 02:01:00,1708E-3,5C000400,-0724,0834,12245,025.1,045.3,0.260,762.4,01.16,0.508
2016-04-15 02:02:00,1781E-3,5C000400,-0724,0831,12079,025.0,045.3,0.261,762.4,01.16,0.508
2016-04-15 02:03:00,1752E-3,5C000400,-0724,0832,12353,025.1,045.3,0.260,762.4,01.16,0.508
2016-04-15 02:04:00,1680E-3,5C000400,-0724,0835,12312,025.1,045.4,0.260,762.4,01.16,0.508
2016-04-15 02:05:00,1808E-3,5C000400,-0724,0832,12293,025.1,045.3,0.261,762.4,01.16,0.508
2016-04-15 02:06:00,1740E-3,5C000400,-0724,0831,12235,025.1,045.3,0.260,762.4,01.16,0.508
2016-04-15 02:07:00,1709E-3,5C000400,-0724,0831,12267,025.1,045.4,0.260,762.3,01.16,0.508
2016-04-15 02:08:00,1642E-3,5C000400,-0724,0833,11381,025.1,045.4,0.261,762.3,01.16,0.508
2016-04-15 02:09:00,1829E-3,5C000400,-0724,0834,9958,025.1,045.3,0.261,762.3,01.16,0.508
2016-04-15 02:10:00,1741E-3,5C000400,-0724,0832,12250,025.1,045.3,0.260,762.3,01.16,0.508
2016-04-15 02:11:00,1695E-3,5C000400,-0724,0835,11259,025.1,045.4,0.260,762.3,01.16,0.508
2016-04-15 02:12:00,1692E-3,5C000400,-0724,0835,11274,025.1,045.3,0.260,762.4,01.16,0.508
2016-04-15 02:13:00,1876E-3,5C000400,-0724,0833,12239,025.1,045.3,0.260,762.4,01.16,0.508
2016-04-15 02:14:00,1836E-3,5C000400,-0724,0838,12302,025.1,045.4,0.260,762.4,01.16,0.508
2016-04-15 02:15:00,1730E-3,5C000400,-0724,0837,12400,025.2,045.3,0.260,762.4,01.16,0.508
2016-04-15 02:16:00,1830E-3,5C000400,-0724,0832,12348,025.2,045.3,0.260,762.4,01.16,0.508
2016-04-15 02:17:00,1737E-3,5C000400,-0724,0833,11035,025.2,045.3,0.260,762.4,01.16,0.508
2016-04-15 02:18:00,1799E-3,5C000400,-0724,0833,12277,025.2,045.3,0.260,762.4,01.16,0.508
2016-04-15 02:19:00,1825E-3,5C000400,-0724,0835,12292,025.2,045.3,0.260,762.4,01.16,0.508
2016-04-15 02:20:00,1848E-3,5C000400,-0724,0835,10070,025.2,045.4,0.260,762.4,01.16,0.508
2016-04-15 02:21:00,1833E-3,5C000400,-0724,0835,12290,025.2,045.3,0.260,762.4,01.16,0.508
2016-04-15 02:22:00,1855E-3,5C000400,-0724,0833,12491,025.2,045.3,0.260,762.4,01.16,0.508
2016-04-15 02:23:00,1783E-3,5C000400,-0724,0836,11300,025.2,045.4,0.260,762.4,01.16,0.508
2016-04-15 02:24:00,1767E-3,5C000400,-0724,0834,11240,025.2,045.4,0.260,762.4,01.16,0.508
2016-04-15 02:25:00,1794E-3,5C000400,-0724,0833,12468,025.2,045.4,0.260,762.4,01.16,0.508
2016-04-15 02:26:00,1803E-3,5C000400,-0724,0836,12450,025.2,045.4,0.260,762.4,01.16,0.508
2016-04-15 02:27:00,1790E-3,5C000410,-0724,0831,12468,025.3,045.3,0.260,762.4,01.16,0.508
2016-04-15 02:28:00,1847E-3,5C000400,-0724,0837,12346,025.2,045.3,0.260,762.4,01.16,0.508
2016-04-15 02:29:00,1801E-3,5C000400,-0724,0833,12087,025.3,045.4,0.260,762.4,01.16,0.508
2016-04-15 02:30:00,1866E-3,5C000400,-0724,0833,12445,025.3,045.4,0.260,762.4,01.16,0.508
2016-04-15 02:31:00,1745E-3,5C000400,-0724,0833,12487,025.2,045.4,0.260,762.4,01.16,0.508
2016-04-15 02:32:00,1831E-3,5C000400,-0724,0832,12363,025.3,045.4,0.260,762.4,01.16,0.508
2016-04-15 02:33:00,1826E-3,5C000400,-0724,0833,11273,025.3,045.4,0.260,762.4,01.16,0.508
2016-04-15 02:34:00,1749E-3,5C000400,-0724,0834,12564,025.3,045.4,0.260,762.4,01.16,0.508
2016-04-15 02:35:00,1896E-3,5C000400,-0724,0834,12153,025.3,045.4,0.260,762.4,01.16,0.508
2016-04-15 02:36:00,1727E-3,5C000400,-0724,0835,12265,025.3,045.4,0.260,762.4,01.16,0.508
2016-04-15 02:37:00,1699E-3,5C000400,-0724,0835,12352,025.3,045.4,0.260,762.4,01.16,0.508
2016-04-15 02:38:00,1810E-3,5C000400,-0724,0833,11094,025.3,045.3,0.260,762.4,01.16,0.508
2016-04-15 02:39:00,1845E-3,5C000400,-0724,0835,11243,025.3,045.3,0.260,762.4,01.16,0.508
2016-04-15 02:40:00,1874E-3,5C000400,-0724,0833,12356,025.4,045.4,0.260,762.4,01.16,0.508
2016-04-15 02:41:00,1890E-3,5C000400,-0724,0831,11201,025.3,045.4,0.260,762.4,01.16,0.508
2016-04-15 02:42:00,1717E-3,5C000400,-0724,0832,12128,025.3,045.4,0.260,762.4,01.16,0.508
2016-04-15 02:43:00,1793E-3,5C000400,-0724,0831,12213,025.4,045.4,0.260,762.4,01.16,0.508
2016-04-15 02:44:00,1836E-3,5C000400,-0724,0832,12263,025.4,045.4,0.260,762.4,01.16,0.508
2016-04-15 02:45:00,1748E-3,5C000400,-0724,0834,12304,025.4,045.3,0.260,762.4,01.16,0.508
2016-04-15 02:46:00,1788E-3,5C000400,-0724,0834,12288,025.4,045.4,0.260,762.4,01.16,0.508
2016-04-15 02:47:00,1932E-3,5C000400,-0724,0839,10275,025.4,045.3,0.260,762.4,01.16,0.508
2016-04-15 02:48:00,1685E-3,5C000400,-0724,0835,12567,025.4,045.4,0.260,762.4,01.16,0.508
2016-04-15 02:49:00,1844E-3,5C000400,-0724,0833,12241,025.4,045.4,0.260,762.4,01.16,0.508
2016-04-15 02:50:00,1905E-3,5C000410,-0724,0838,12443,025.4,045.4,0.260,762.4,01.16,0.508
2016-04-15 02:51:00,1822E-3,5C000400,-0724,0840,11463,025.4,045.4,0.260,762.4,01.16,0.508
2016-04-15 02:52:00,1952E-3,5C000400,-0724,0833,12254,025.5,045.4,0.260,762.4,01.16,0.508
2016-04-15 02:53:00,1822E-3,5C000400,-0724,0836,12232,025.4,045.4,0.260,762.4,01.16,0.508
2016-04-15 02:54:00,1628E-3,5C000400,-0724,0833,12554,025.4,045.4,0.260,762.4,01.16,0.508
2016-04-15 02:55:00,1830E-3,5C000400,-0724,0836,11414,025.4,045.4,0.260,762.4,01.16,0.508
2016-04-15 02:56:00,1840E-3,5C000400,-0724,0833,12152,025.5,045.4,0.260,762.4,01.16,0.508
2016-04-15 02:57:00,2062E-3,5C000400,-0724,0835,12387,025.5,045.3,0.260,762.4,01.16,0.508
2016-04-15 02:58:00,1794E-3,5C000400,-0724,0835,11158,025.5,045.3,0.260,762.4,01.16,0.508
2016-04-15 02:59:00,1742E-3,5C000400,-0724,0834,12205,025.5,045.4,0.260,762.4,01.16,0.508
2016-04-15 03:00:00,1705E-3,5C000400,-0724,0832,12488,025.5,045.4,0.260,762.4,01.16,0.508
2016-04-15 03:01:00,1813E-3,5C000400,-0724,0835,12380,025.5,045.4,0.259,762.4,01.16,0.508
2016-04-15 03:02:00,1691E-3,5C000400,-0724,0834,12322,025.5,045.4,0.260,762.4,01.16,0.508
2016-04-15 03:03:00,1743E-3,5C000400,-0724,0836,12810,025.5,045.4,0.259,762.4,01.16,0.508
2016-04-15 03:04:00,1753E-3,5C000400,-0724,0833,12213,025.5,045.4,0.260,762.4,01.16,0.508
2016-04-15 03:05:00,1812E-3,5C000400,-0724,0834,12463,025.6,045.4,0.260,762.4,01.16,0.508
2016-04-15 03:06:00,1861E-3,5C000400,-0724,0835,12318,025.6,045.4,0.260,762.4,01.16,0.508
2016-04-15 03:07:00,1798E-3,5C000400,-0724,0835,12423,025.6,045.3,0.260,762.3,01.16,0.508
2016-04-15 03:08:00,1809E-3,5C000400,-0724,0834,11142,025.6,045.3,0.260,762.3,01.16,0.508
2016-04-15 03:09:00,1661E-3,5C000400,-0724,0836,12465,025.6,045.4,0.260,762.3,01.16,0.508
2016-04-15 03:10:00,1842E-3,5C000400,-0724,0837,11176,025.6,045.3,0.260,762.3,01.16,0.508
2016-04-15 03:11:00,1825E-3,5C000400,-0724,0836,12360,025.6,045.4,0.259,762.4,01.16,0.508
2016-04-15 03:12:00,1842E-3,5C000400,-0724,0833,12351,025.6,045.4,0.260,762.4,01.16,0.508
2016-04-15 03:13:00,1810E-3,5C000410,-0724,0836,12479,025.6,045.4,0.260,762.4,01.16,0.508
2016-04-15 03:14:00,1881E-3,5C000400,-0724,0834,11017,025.6,045.4,0.259,762.4,01.16,0.508
2016-04-15 03:15:00,1905E-3,5C000400,-0724,0833,12376,025.6,045.4,0.260,762.4,01.16,0.508
2016-04-15 03:16:00,1927E-3,5C000400,-0724,0832,11189,025.6,045.4,0.259,762.4,01.16,0.508
2016-04-15 03:17:00,1671E-3,5C000400,-0724,0836,12281,025.6,045.4,0.260,762.4,01.16,0.508
2016-04-15 03:18:00,1632E-3,5C000400,-0724,0833,12392,025.7,045.4,0.259,762.4,01.16,0.508
2016-04-15 03:19:00,1751E-3,5C000400,-0724,0833,12245,025.7,045.4,0.259,762.4,01.16,0.508
2016-04-15 03:20:00,1879E-3,5C000400,-0724,0834,12384,025.7,045.4,0.259,762.4,01.16,0.508
2016-04-15 03:21:00,1719E-3,5C000400,-0724,0832,11391,025.7,045.4,0.259,762.4,01.16,0.508
2016-04-15 03:22:00,1882E-3,5C000400,-0724,0832,12298,025.7,045.4,0.259,762.4,01.16,0.508
2016-04-15 03:23:00,1862E-3,5C000400,-0724,0834,12411,025.7,045.4,0.259,762.4,01.16,0.508
2016-04-15 03:24:00,1799E-3,5C000400,-0724,0837,12480,025.7,045.4,0.259,762.4,01.16,0.508
2016-04-15 03:25:00,1723E-3,5C000400,-0724,0834,12145,025.7,045.4,0.259,762.4,01.16,0.508
2016-04-15 03:26:00,1875E-3,5C000400,-0724,0834,12267,025.7,045.4,0.259,762.4,01.16,0.508
2016-04-15 03:27:00,1742E-3,5C000400,-0724,0835,12309,025.8,045.4,0.259,762.4,01.16,0.508
2016-04-15 03:28:00,1765E-3,5C000400,-0724,0835,12320,025.7,045.4,0.259,762.4,01.16,0.508
2016-04-15 03:29:00,1691E-3,5C000400,-0724,0833,12324,025.8,045.4,0.259,762.4,01.16,0.508
2016-04-15 03:30:00,1745E-3,5C000400,-0724,0833,11222,025.8,045.4,0.259,762.4,01.16,0.508
2016-04-15 03:31:00,1768E-3,5C000400,-0724,0834,12319,025.8,045.4,0.259,762.4,01.16,0.508
2016-04-15 03:32:00,1853E-3,5C000400,-0724,0832,12373,025.8,045.4,0.259,762.4,01.16,0.508
2016-04-15 03:33:00,1792E-3,5C000400,-0724,0834,10094,025.8,045.3,0.259,762.5,01.16,0.508
2016-04-15 03:34:00,1899E-3,5C000400,-0724,0831,10969,025.8,045.4,0.259,762.4,01.16,0.508
2016-04-15 03:35:00,1824E-3,5C000400,-0724,0830,9921,025.8,045.4,0.259,762.5,01.16,0.508
2016-04-15 03:36:00,1785E-3,5C000400,-0724,0834,12283,025.8,045.4,0.259,762.4,01.16,0.508
2016-04-15 03:37:00,1817E-3,5C000400,-0724,0830,10975,025.9,045.3,0.259,762.4,01.16,0.508
2016-04-15 03:38:00,1770E-3,5C000400,-0724,0837,12380,025.9,045.3,0.259,762.4,01.16,0.508
2016-04-15 03:39:00,1852E-3,5C000400,-0724,0833,12172,025.9,045.3,0.259,762.4,01.16,0.508
2016-04-15 03:40:00,1740E-3,5C000400,-0724,0834,11419,025.9,045.4,0.259,762.4,01.16,0.508
2016-04-15 03:41:00,1871E-3,5C000400,-0724,0833,12440,025.9,045.4,0.259,762.4,01.16,0.508
2016-04-15 03:42:00,1817E-3,5C000400,-0724,0831,12070,025.9,045.4,0.259,762.4,01.16,0.508
2016-04-15 03:43:00,1844E-3,5C000400,-0724,0834,12246,025.9,045.4,0.259,762.4,01.16,0.508
2016-04-15 03:44:00,1815E-3,5C000400,-0724,0834,12394,025.9,045.4,0.259,762.4,01.16,0.508
2016-04-15 03:45:00,1841E-3,5C000400,-0724,0832,11150,025.9,045.4,0.259,762.4,01.16,0.508
2016-04-15 03:46:00,1697E-3,5C000400,-0724,0832,12300,025.9,045.4,0.259,762.4,01.16,0.508
2016-04-15 03:47:00,1816E-3,5C000400,-0724,0830,12207,025.9,045.4,0.259,762.5,01.16,0.508
2016-04-15 03:48:00,1837E-3,5C000400,-0724,0833,12552,025.9,045.4,0.259,762.5,01.16,0.508
2016-04-15 03:49:00,1786E-3,5C000400,-0724,0833,12297,025.9,045.4,0.259,762.5,01.16,0.508
2016-04-15 03:50:00,1944E-3,5C000400,-0724,0835,12404,026.0,045.4,0.259,762.5,01.16,0.508
2016-04-15 03:51:00,1946E-3,5C000400,-0724,0833,12265,025.9,045.4,0.259,762.5,01.16,0.508
2016-04-15 03:52:00,1981E-3,5C000400,-0724,0832,12199,026.0,045.4,0.259,762.5,01.16,0.508
2016-04-15 03:53:00,1817E-3,5C000400,-0724,0833,12151,026.0,045.4,0.259,762.5,01.16,0.508
2016-04-15 03:54:00,1856E-3,5C000400,-0724,0831,12238,026.0,045.4,0.259,762.5,01.16,0.508
2016-04-15 03:55:00,1793E-3,5C000400,-0724,0832,12175,026.0,045.4,0.259,762.5,01.16,0.508
2016-04-15 03:56:00,1889E-3,5C000400,-0724,0834,12317,026.0,045.4,0.258,762.5,01.16,0.508
2016-04-15 03:57:00,1905E-3,5C000400,-0724,0834,11253,026.0,045.4,0.259,762.4,01.16,0.508
2016-04-15 03:58:00,1915E-3,5C000400,-0724,0834,12579,026.0,045.4,0.259,762.5,01.16,0.508
2016-04-15 03:59:00,1705E-3,5C000400,-0724,0834,12402,026.0,045.4,0.259,762.5,01.16,0.508
2016-04-15 04:00:00,1903E-3,5C000400,-0724,0832,10045,026.0,045.4,0.259,762.4,01.16,0.508
2016-04-15 04:01:00,1814E-3,5C000400,-0724,0833,11229,026.0,045.4,0.258,762.4,01.16,0.508
2016-04-15 04:02:00,1934E-3,5C000400,-0724,0833,12252,026.1,045.4,0.259,762.4,01.16,0.508
2016-04-15 04:03:00,1877E-3,5C000400,-0724,0833,12225,026.1,045.4,0.259,762.4,01.16,0.508
2016-04-15 04:04:00,1897E-3,5C000400,-0724,0834,12198,026.0,045.4,0.259,762.4,01.16,0.508
2016-04-15 04:05:00,1924E-3,5C000400,-0724,0833,12149,026.1,045.4,0.259,762.5,01.16,0.508
2016-04-15 04:06:00,1905E-3,5C000400,-0724,0833,12148,026.1,045.4,0.259,762.4,01.16,0.508
2016-04-15 04:07:00,1722E-3,5C000400,-0724,0835,12246,026.1,045.4,0.259,762.4,01.16,0.508
2016-04-15 04:08:00,1868E-3,5C000400,-0724,0833,12295,026.1,045.4,0.259,762.4,01.16,0.508
2016-04-15 04:09:00,1747E-3,5C000400,-0724,0836,11140,026.1,045.4,0.259,762.4,01.16,0.508
2016-04-15 04:10:00,1845E-3,5C000400,-0724,0832,12277,026.1,045.4,0.259,762.4,01.16,0.508
2016-04-15 04:11:00,1825E-3,5C000400,-0724,0835,12167,026.1,045.4,0.259,762.4,01.16,0.508
2016-04-15 04:12:00,1871E-3,5C000400,-0724,0833,12257,026.2,045.4,0.259,762.4,01.16,0.508
2016-04-15 04:13:00,1770E-3,5C000400,-0724,0834,9820,026.2,045.4,0.259,762.4,01.16,0.508
2016-04-15 04:14:00,1802E-3,5C000400,-0724,0831,12273,026.2,045.4,0.258,762.4,01.16,0.508
2016-04-15 04:15:00,1857E-3,5C000400,-0724,0833,12213,026.2,045.4,0.259,762.4,01.16,0.508
2016-04-15 04:16:00,1867E-3,5C000400,-0724,0832,12308,026.2,045.4,0.258,762.4,01.16,0.508
2016-04-15 04:17:00,1926E-3,5C000400,-0724,0834,12370,026.1,045.4,0.259,762.4,01.16,0.508
2016-04-15 04:18:00,1819E-3,5C000400,-0724,0833,12314,026.2,045.4,0.258,762.5,01.16,0.508
2016-04-15 04:19:00,1942E-3,5C000400,-0724,0837,12463,026.2,045.4,0.259,762.5,01.16,0.508
2016-04-15 04:20:00,1779E-3,5C000400,-0724,0834,12289,026.2,045.4,0.258,762.5,01.16,0.508